Theta_e
318 318 318 318 319 319 320 320 320 320 320 320 320 320 321 320 319 319 317 318 316 315 319 320 314 313 313 322 321 325 322 321 322 326 327 331 335 337 338 340 339 343 339 338 338 339 340
317 317 317 317 318 319 319 320 320 320 320 320 320 320 320 320 319 320 317 319 317 315 318 321 314 313 313 324 322 322 324 322 325 326 328 332 336 336 337 338 339 340 338 337 338 340 341
317 318 318 318 319 319 320 320 320 320 320 320 320 320 320 321 319 319 318 319 317 315 318 321 314 313 322 323 321 322 327 329 326 329 331 334 335 335 337 338 338 338 337 335 339 341 342
316 317 318 319 319 320 320 320 320 320 320 320 320 320 320 321 320 319 318 318 315 315 319 321 314 313 323 323 323 322 325 327 328 331 332 335 336 335 336 338 339 339 337 339 342 340 344
316 316 317 319 320 320 319 319 319 319 319 320 320 320 320 320 320 319 318 315 315 317 321 318 314 316 326 322 320 321 325 326 329 332 332 334 335 335 336 338 338 338 340 342 343 341 342
316 316 317 318 320 320 317 317 317 318 319 319 320 320 320 320 319 318 316 315 316 320 321 316 323 327 325 322 319 321 324 325 329 331 332 333 335 337 337 338 341 340 341 342 344 343 342
316 317 317 318 319 319 317 315 316 316 317 318 319 319 320 320 319 318 315 319 321 323 325 326 324 324 323 322 320 323 325 325 330 331 333 334 336 337 336 338 339 340 340 339 341 341 340
316 316 317 318 318 318 317 315 315 315 316 317 318 319 319 320 319 318 315 325 328 328 330 328 327 323 323 322 323 324 325 326 330 332 333 336 337 336 336 338 337 339 340 337 341 340 339
319 316 315 317 318 318 317 316 315 314 315 316 317 318 319 319 319 318 317 321 326 327 329 329 328 326 322 323 324 325 325 326 330 332 334 336 336 336 336 338 337 336 338 338 340 341 340
319 318 315 315 316 317 317 316 316 314 315 316 317 318 318 319 319 322 319 319 323 326 331 331 331 328 322 322 324 325 326 325 328 332 334 335 337 334 337 337 336 335 336 339 338 339 340
320 319 317 315 316 317 317 317 316 314 315 316 318 318 318 319 326 325 324 322 324 328 335 331 331 328 323 322 325 327 327 327 327 330 332 335 335 336 335 335 335 335 337 338 337 338 338
320 320 318 316 315 317 317 317 316 314 315 319 321 320 319 319 319 324 324 325 327 330 332 333 329 326 325 323 324 327 328 327 327 329 331 332 334 334 336 333 334 335 336 336 337 338 340
319 320 319 316 314 316 317 317 316 315 317 323 324 323 321 321 324 323 323 326 330 331 329 333 331 328 326 324 325 328 329 328 329 328 330 331 333 334 334 334 333 335 335 338 339 341 349
319 320 320 317 315 315 317 317 317 315 320 323 324 323 321 320 324 324 323 329 332 328 330 333 332 331 327 325 326 327 328 329 329 328 329 330 333 334 333 332 334 335 335 338 343 347 346
320 320 319 318 316 314 316 317 317 315 322 321 321 320 319 319 322 324 326 331 331 332 331 332 331 330 328 326 325 326 328 328 328 328 329 330 333 332 333 332 332 335 336 337 338 339 342
320 319 319 317 316 313 316 317 317 316 322 321 326 326 326 324 320 324 329 329 330 332 334 335 330 330 329 327 325 327 328 329 328 328 329 330 331 331 332 332 332 334 338 341 339 343 345
319 319 318 317 316 313 316 317 317 316 323 323 326 331 326 323 323 325 331 330 331 332 333 335 332 329 329 328 327 328 328 328 329 329 329 329 330 331 332 332 332 334 335 336 339 339 342
319 318 318 316 315 313 315 316 317 316 324 325 329 333 325 324 326 327 329 329 329 331 331 333 334 333 328 329 329 328 329 329 328 329 329 329 329 331 334 333 333 335 335 334 337 341 341
319 318 318 316 315 313 315 316 317 315 321 325 331 328 325 325 329 328 328 329 330 331 332 333 333 334 333 331 330 329 329 330 329 329 329 329 328 331 332 334 335 334 334 335 336 338 348
318 318 318 315 315 313 314 316 317 315 319 324 332 330 326 325 328 333 333 329 331 330 332 333 334 336 335 333 332 331 329 330 329 329 327 328 328 331 336 339 338 335 335 335 335 336 340
316 317 318 315 314 312 313 316 318 316 321 326 333 337 329 328 328 332 332 332 331 331 331 332 334 337 336 333 331 330 330 331 330 329 328 327 328 330 332 336 336 338 339 339 335 335 337
316 317 318 316 315 313 312 315 317 317 324 328 332 333 333 334 327 328 328 332 332 330 332 334 336 338 338 343 343 344 338 339 333 331 328 328 331 331 331 332 334 337 340 336 337 337 343
316 317 317 316 315 313 311 314 315 318 317 327 328 329 332 334 333 332 331 333 332 332 333 338 337 339 338 340 335 336 335 333 336 337 329 329 328 332 333 332 333 334 335 336 337 339 342
316 316 317 316 315 312 312 313 314 316 315 322 326 326 331 337 337 338 333 333 335 335 336 338 334 336 337 333 338 333 332 333 337 338 332 332 334 332 332 334 336 334 334 336 338 340 344
315 315 316 316 315 312 312 313 314 314 317 321 324 324 329 336 335 337 338 337 335 334 336 337 338 336 340 336 340 337 339 341 339 337 334 333 334 335 334 335 337 337 340 342 341 339 339
314 314 316 316 315 313 312 313 314 314 316 319 324 323 325 331 335 333 335 334 337 339 334 335 337 338 338 338 337 345 344 344 345 337 337 337 339 339 337 336 339 343 339 338 339 341 341
315 314 314 315 315 314 312 313 313 314 314 319 322 324 325 328 332 329 333 334 335 336 340 340 339 338 338 340 344 341 342 337 344 342 339 340 339 341 341 347 344 341 340 337 342 345 340
314 314 313 315 315 315 312 312 313 314 314 316 322 325 324 326 328 328 328 331 332 334 339 330 338 338 339 340 342 341 341 339 339 340 341 339 338 337 338 340 350 340 340 343 344 340 340
312 312 313 314 315 314 313 312 313 313 313 315 324 324 324 326 327 327 326 327 328 330 331 334 335 339 337 340 342 336 336 335 335 346 339 342 338 345 340 344 340 338 333 331 333 341 341
Wind_Speed
21 20 20 20 18 18 18 18 18 17 15 14 12 12 11 10 10 11 9 9 8 9 9 8 8 7 6 8 17 6 11 15 16 16 15 13 18 14 5 8 3 12 4 2 7 3 7
21 21 21 20 20 20 19 18 18 17 16 14 13 12 12 11 11 11 10 8 8 8 9 9 8 7 6 15 7 6 2 15 16 18 15 14 14 9 11 1 3 11 7 8 6 5 2
22 22 22 21 21 21 20 19 18 17 16 15 14 13 12 11 11 11 10 7 6 8 9 8 7 7 10 21 5 7 10 14 17 18 16 15 13 10 11 4 11 13 8 9 10 8 1
23 23 22 22 21 21 21 20 19 17 16 15 14 13 12 11 11 11 8 4 5 8 9 8 6 6 11 5 12 9 10 15 18 17 17 13 11 14 17 7 10 13 13 11 5 6 6
24 23 23 22 21 21 21 20 19 17 15 15 14 13 11 10 10 9 5 3 6 8 8 7 5 5 14 9 17 16 15 18 19 18 17 8 8 17 21 11 13 10 10 5 12 12 4
25 24 23 22 22 22 22 21 19 18 16 15 14 12 11 9 8 6 2 4 6 7 7 7 8 8 20 14 15 17 18 18 19 19 16 13 14 14 15 14 9 6 2 12 10 1 10
27 25 24 23 22 22 22 22 20 19 17 16 15 13 11 8 6 3 9 7 3 4 15 13 17 13 1 11 15 18 20 20 21 21 16 19 14 17 21 11 12 11 16 11 13 8 4
27 26 25 24 23 23 22 22 21 21 19 17 16 13 10 8 6 6 14 7 7 6 10 27 21 19 6 11 15 18 21 20 24 18 19 17 17 21 15 14 4 9 12 12 7 7 6
27 27 26 25 24 24 23 23 23 22 21 19 16 13 9 7 6 9 17 16 6 8 9 19 31 20 17 11 17 21 25 25 18 20 19 20 20 19 14 11 12 12 14 2 4 9 9
27 27 26 26 25 24 24 24 24 23 22 20 17 13 8 4 2 4 13 12 11 6 6 12 22 22 20 15 18 22 25 25 14 19 20 20 23 15 16 8 12 16 14 9 10 11 9
28 27 27 26 26 25 25 25 26 24 22 20 17 11 7 9 4 5 7 6 5 5 6 18 21 9 19 21 12 24 25 26 20 18 15 19 20 9 8 14 14 17 7 14 15 13 17
28 28 27 27 27 27 26 26 27 26 24 20 15 9 8 10 12 12 5 4 5 6 10 10 10 16 18 23 25 26 23 25 22 18 17 22 17 16 15 11 16 19 12 11 14 14 13
27 27 27 27 27 27 27 27 29 28 26 20 13 10 11 14 10 10 5 9 6 9 10 12 19 18 20 16 21 17 21 20 17 15 17 19 21 14 14 13 15 15 13 11 10 11 3
27 26 27 27 28 28 28 28 29 28 25 14 5 7 13 15 15 3 11 9 10 14 20 14 14 17 20 19 21 19 19 18 21 19 13 16 14 19 12 18 15 11 17 12 6 7 6
26 26 27 26 28 28 28 28 29 28 20 6 1 2 7 14 14 9 15 12 10 16 17 7 14 17 18 19 16 18 20 20 20 22 19 16 18 16 20 17 18 18 15 9 6 9 8
26 27 27 27 28 28 28 28 29 26 14 1 3 7 4 9 14 13 11 19 19 15 12 9 10 13 17 20 21 19 19 20 21 22 20 20 13 18 21 18 20 20 7 5 2 5 14
27 27 27 26 27 28 28 28 29 24 9 0 5 8 6 11 13 14 11 19 19 10 7 8 7 11 16 16 19 18 16 17 22 20 18 19 16 11 18 14 20 15 17 14 16 7 6
27 27 27 27 27 28 27 27 28 24 7 5 7 5 11 16 11 15 13 23 14 6 8 11 15 17 16 16 20 18 15 17 14 22 22 19 12 13 16 17 19 19 18 19 12 13 13
26 28 26 26 27 28 26 25 25 24 13 8 7 8 10 16 7 11 18 23 10 11 8 11 10 12 9 15 16 18 19 15 15 14 18 14 14 14 17 17 19 16 21 20 16 19 5
28 27 25 26 27 28 26 25 23 22 12 9 8 3 8 16 20 15 15 19 8 16 17 15 12 13 15 12 16 14 19 13 12 9 17 16 18 17 4 13 15 22 19 14 18 12 6
28 26 23 25 27 28 26 25 22 19 9 6 6 6 9 8 15 18 13 18 17 18 19 14 13 17 14 11 14 14 15 12 13 10 10 16 18 19 14 16 3 17 19 14 15 17 17
26 25 23 24 26 28 26 25 24 19 5 4 8 12 20 16 14 16 10 12 11 19 6 18 18 14 10 10 8 3 7 5 15 12 16 17 16 17 17 14 10 9 31 13 17 15 12
25 24 23 24 26 27 26 23 25 22 10 5 13 9 11 16 9 9 12 9 19 18 10 1 6 10 17 15 24 6 2 20 16 15 16 17 14 14 14 13 18 17 16 11 15 15 16
23 23 22 23 24 26 25 22 22 21 17 6 10 14 12 11 10 16 7 21 10 10 10 22 13 9 14 17 25 11 12 26 14 41 19 15 14 12 13 16 17 15 14 3 9 10 23
22 22 22 22 23 25 23 21 20 19 15 8 8 11 11 9 14 8 13 22 8 12 9 18 37 3 13 57 13 3 2 5 17 18 19 17 14 11 12 12 13 11 18 18 15 15 5
22 22 21 21 22 24 23 21 19 18 14 10 4 8 11 10 2 13 13 7 10 10 9 12 5 11 8 6 11 4 6 6 6 5 1 1 5 6 7 13 13 12 15 28 20 2 16
21 22 22 21 21 21 23 21 19 17 15 11 2 9 8 13 9 15 13 10 13 16 7 15 15 8 7 6 4 5 5 8 11 5 6 5 2 8 8 2 6 13 20 24 11 5 19
22 22 22 20 20 21 21 20 19 17 14 10 5 7 8 10 17 11 12 12 16 18 8 15 18 5 7 5 2 4 3 4 4 5 7 5 2 8 12 8 3 13 10 3 21 34 8
23 22 20 19 19 20 21 21 18 16 12 8 4 8 10 10 11 14 13 12 8 5 7 7 12 2 7 4 8 5 5 4 9 3 8 8 2 1 3 6 13 19 24 8 12 35 9
Wind_Direction
2 1 359 355 352 349 347 345 343 338 334 323 315 314 318 321 322 321 299 277 257 239 230 231 234 238 234 246 251 242 235 223 212 209 233 252 263 268 264 138 224 185 169 239 187 251 253
2 359 356 355 351 349 346 343 340 337 332 325 315 309 310 313 315 319 305 282 256 232 221 222 228 229 232 254 247 247 210 209 199 206 226 241 256 321 287 117 326 313 243 262 180 237 169
5 1 358 354 351 349 347 344 341 336 331 327 320 306 306 308 312 316 311 282 244 217 212 214 221 229 254 235 221 229 196 208 197 207 223 228 260 260 254 234 215 258 248 232 220 183 117
4 1 358 356 353 351 348 346 343 338 332 326 321 313 300 303 310 316 311 269 223 200 199 202 212 227 255 259 216 226 205 199 200 209 223 230 240 266 284 217 244 231 243 241 34 193 140
3 0 357 355 352 350 348 345 341 338 333 327 322 314 298 300 309 316 302 218 184 185 186 190 185 244 255 213 217 208 201 201 198 205 222 271 244 251 252 233 248 206 235 214 209 243 274
4 1 358 356 353 350 348 345 342 338 333 327 322 315 302 299 306 317 202 151 164 173 178 195 214 254 247 229 209 201 198 200 196 200 212 226 232 243 243 239 234 271 342 210 170 276 242
5 2 359 356 354 351 349 346 343 337 333 326 321 314 304 295 293 260 164 139 153 224 208 209 183 216 120 201 182 193 192 201 197 206 212 211 227 230 238 279 164 253 199 233 178 136 245
4 2 359 356 355 351 348 347 343 337 331 325 319 313 304 285 273 228 197 197 20 340 274 233 242 236 265 159 180 196 188 202 201 207 211 212 229 240 244 205 226 237 271 254 113 166 213
0 359 358 355 353 350 347 345 342 335 329 323 317 311 300 283 271 243 217 221 323 316 272 259 213 221 213 220 211 200 190 203 200 211 207 231 205 242 270 204 230 251 248 283 290 242 226
359 357 356 355 352 349 346 344 341 335 328 320 313 304 287 266 285 262 240 219 260 296 279 209 193 220 210 203 227 203 196 198 218 216 225 227 251 198 224 254 255 241 229 189 253 248 246
356 355 354 352 352 348 346 343 340 335 327 318 310 297 257 211 197 173 7 199 223 245 265 153 176 196 194 195 174 201 192 206 222 210 225 230 238 205 257 249 255 261 194 266 267 239 256
352 353 352 352 351 349 345 343 341 336 328 318 304 281 229 217 230 181 150 195 184 230 245 146 141 175 179 207 238 180 186 214 220 247 227 243 214 244 234 222 259 244 251 258 261 262 254
349 350 351 351 350 349 346 344 342 338 330 317 292 254 215 190 205 212 212 190 211 238 212 162 164 185 195 191 217 191 188 201 220 223 234 224 250 216 259 249 226 251 259 259 233 244 343
347 348 349 350 350 349 348 345 344 341 335 328 296 233 208 199 168 170 188 216 241 218 254 138 169 190 202 190 214 195 194 208 218 221 226 223 215 239 185 244 261 212 236 256 285 318 303
348 348 349 349 350 350 349 347 346 345 340 348 53 158 195 201 194 179 204 217 221 250 226 213 164 179 201 200 204 211 198 214 209 227 237 214 224 211 229 217 245 250 224 175 208 247 265
349 350 349 349 350 351 350 349 348 349 342 197 115 216 168 195 190 184 222 238 235 307 299 290 190 188 198 206 207 193 198 216 225 211 240 262 250 210 213 211 223 244 122 66 307 244 248
349 350 350 350 350 351 352 351 349 351 338 190 248 227 166 164 160 203 221 234 241 248 289 287 268 191 218 205 197 208 217 217 208 224 212 252 268 247 214 194 224 218 241 243 211 243 283
348 350 350 351 352 352 354 354 352 352 343 286 277 276 160 160 193 219 229 242 270 288 206 263 283 295 202 219 196 223 206 218 204 213 203 223 249 255 199 202 221 245 237 229 238 243 215
350 349 350 351 352 353 355 356 355 351 341 300 264 115 173 182 221 205 232 251 245 236 253 226 257 273 277 230 212 212 237 225 176 210 223 202 236 255 246 194 203 225 243 254 271 279 122
347 348 349 352 354 354 355 357 357 350 331 314 288 149 169 210 251 287 247 240 236 236 277 282 280 295 242 231 239 203 231 203 178 228 234 202 235 242 203 272 351 208 232 255 265 285 154
349 350 350 353 355 355 356 356 358 353 327 314 259 263 197 194 224 241 264 245 234 227 207 244 261 249 253 243 210 216 222 192 165 197 214 216 231 246 240 197 95 305 320 294 233 254 267
349 352 351 352 354 356 356 358 359 1 331 295 321 335 338 304 221 232 259 264 273 226 243 212 222 328 296 36 18 76 31 326 170 185 203 208 239 245 253 272 178 211 214 250 269 277 81
351 352 351 352 354 355 357 359 1 5 3 337 346 323 303 287 263 225 227 247 232 249 210 204 91 35 30 34 334 229 212 280 244 275 207 207 217 236 253 251 259 260 243 239 275 336 104
349 351 351 351 353 355 357 359 3 4 7 341 337 326 286 284 296 337 67 342 296 298 318 26 350 82 286 73 278 70 339 296 326 286 195 210 213 229 244 245 243 252 267 235 298 305 97
347 349 349 349 351 354 356 356 359 1 2 8 4 330 311 303 317 12 240 203 296 271 283 138 258 217 253 160 173 112 359 264 284 186 193 189 208 216 242 245 255 263 26 21 344 273 151
345 347 346 347 347 350 353 353 353 355 355 357 39 332 309 291 354 340 315 299 279 317 211 228 233 247 239 246 236 95 260 99 232 261 20 181 18 279 226 244 272 26 351 10 343 57 27
340 342 342 341 343 345 349 349 349 349 350 352 327 344 321 292 294 344 353 325 336 334 346 7 335 273 234 241 44 52 15 3 314 278 220 183 231 272 255 285 89 352 317 354 337 7 342
331 334 337 337 338 340 343 345 345 345 344 348 274 307 340 301 292 328 325 324 336 360 49 336 318 282 310 261 147 114 119 150 269 291 303 289 256 274 266 310 13 41 12 25 319 292 284
327 327 331 334 336 336 338 340 340 340 337 334 331 326 309 284 281 306 288 282 293 309 326 278 293 39 344 331 73 96 40 348 27 272 305 234 123 240 262 72 131 115 126 123 305 292 335